User: anonymous   Login
Location: Ambrosina
(19.9365°S, 43.9833°W)
Time: 00:05:02
(UTC+00:00)
Language:

Cosmos 968 Rocket - Orbit

View from above orbital plane
View from above orbital plane
View from above satellite
View from above satellite

Ground track
Ground track

The orbit data is extracted from the following two-line orbital elements,

1 10521U 77119B   21213.80803066  .00000061  00000-0  27225-4 0  9993
2 10521  74.0290 358.3642 0021074   0.9080 359.2110 14.40831744289236
Epoch (UTC): 01 August 2021 19:23:33
Eccentricity: 0.0021074
inclination: 74.0290°
perigee height: 741 km
apogee height: 771 km
right ascension of ascending node: 358.3642°
argument of perigee: 0.9080°
revolutions per day: 14.40831744
mean anomaly at epoch: 359.2110°
orbit number at epoch: 28923

The dashed part of the orbit path shows where the satellite is in the earth's shadow,  

DLR